Del Bajio, Mexico

4:02 AM CST on December 11, 2017 (GMT -0600)
De Guanajuato International

Weather History for MMLO - October, 2013

Change the Weather History Date:

Tuesday, October 22, 2013

  Actual Average Record
Temperature  
Mean Temperature 67 °F -  
Max Temperature 75 °F 79 °F 89 °F (2005)
Min Temperature 59 °F 51 °F 42 °F (2001)
Cooling Degree Days 2    
Growing Degree Days 17 (Base 50)    
Moisture  
Dew Point 55 °F    
Average Humidity 71    
Maximum Humidity 94    
Minimum Humidity 50    
Precipitation  
Precipitation 0.00 in - - ()
Sea Level Pressure  
Sea Level Pressure 30.07 in    
Wind  
Wind Speed 5 mph ()    
Max Wind Speed 17 mph    
Max Gust Speed -    
Visibility 8.9 miles    
Events      
Averages and records for this station are not official NWS values.
T = Trace of Precipitation, MM = Missing Value Source: Averaged Metar Reports

Daily Weather History Graph

Daily Weather History Graph

Search for Another Location

Airport or City:

Trip Planner

Search our weather history database for the weather conditions in past years. The results will help you decide how hot, cold, wet, or windy it might be!

Date:

Astronomy

Oct. 22, 2013 Rise Set
Actual Time 7:44 AM CDT 7:16 PM CDT
Civil Twilight 7:21 AM CDT 7:38 PM CDT
Nautical Twilight 6:55 AM CDT 8:04 PM CDT
Astronomical Twilight 6:29 AM CDT 8:30 PM CDT
Moon 10:16 PM CDT (10/22) 10:55 AM CDT (10/22)
Length of Visible Light 12h 17m
Length of Day
11h 32m
Waning Gibbous, 86% of the Moon is Illuminated
Oct 22
Waning Gibbous
Oct 26
Last Quarter
Nov 3
New
Nov 9
First Quarter
Nov 17
Full

Hourly Weather History & Observations

Time (CDT) Temp. Dew Point Humidity Pressure Visibility Wind Dir Wind Speed Gust Speed Precip Events Conditions
12:44 AM 62.6 °F 57.2 °F 82% 29.86 in 8.0 mi ESE 5.8 mph - N/A   Mostly Cloudy
1:43 AM 62.6 °F 57.2 °F 82% 30.18 in 8.0 mi Calm Calm - N/A   Mostly Cloudy
2:45 AM 62.6 °F 57.2 °F 82% 30.18 in 8.0 mi South 3.5 mph - N/A   Overcast
3:45 AM 60.8 °F 57.2 °F 88% 29.73 in 8.0 mi Calm Calm - N/A   Mostly Cloudy
4:42 AM 59.0 °F 57.2 °F 94% 30.15 in 8.0 mi Calm Calm - N/A   Mostly Cloudy
5:44 AM 60.8 °F 57.2 °F 88% 30.18 in 8.0 mi Calm Calm - N/A   Mostly Cloudy
6:41 AM 60.8 °F 57.2 °F 88% 29.81 in 8.0 mi Calm Calm - N/A   Mostly Cloudy
8:48 AM 62.6 °F 55.4 °F 77% 30.21 in 10.0 mi NE 4.6 mph - N/A   Mostly Cloudy
9:51 AM 66.2 °F 57.2 °F 73% 29.84 in 10.0 mi SE 4.6 mph - N/A   Mostly Cloudy
10:45 AM 73.4 °F 55.4 °F 53% 30.24 in 10.0 mi East 9.2 mph - N/A   Overcast
12:46 PM 73.4 °F 55.4 °F 53% 29.81 in 10.0 mi NE 5.8 mph - N/A   Overcast
1:48 PM 71.6 °F 55.4 °F 57% 30.18 in 10.0 mi East 17.3 mph - N/A   Overcast
2:42 PM 73.4 °F 55.4 °F 53% 30.18 in 10.0 mi NE 8.1 mph - N/A   Overcast
3:55 PM 75.2 °F 55.4 °F 50% 29.75 in 10.0 mi NE 10.4 mph - N/A   Overcast
4:46 PM 73.4 °F 55.4 °F 53% 30.15 in 10.0 mi NE 9.2 mph - N/A   Overcast
5:54 PM 69.8 °F 53.6 °F 56% 30.18 in 10.0 mi ENE 11.5 mph - N/A   Overcast
7:42 PM 62.6 °F 53.6 °F 72% 30.21 in 8.0 mi NE 17.3 mph - N/A   Overcast
8:48 PM 60.8 °F 53.6 °F 77% 30.21 in 8.0 mi ENE 6.9 mph - N/A   Overcast
9:40 PM 60.8 °F 53.6 °F 77% 29.92 in 8.0 mi ENE 9.2 mph - N/A   Overcast
10:40 PM 60.8 °F 51.8 °F 72% 30.26 in 8.0 mi ENE 9.2 mph - N/A   Overcast
11:50 PM 59.0 °F 50.0 °F 72% 30.25 in 8.0 mi NNE 6.9 mph - N/A   Overcast